Triuchirapalli, India

10:02 AM IST on November 20, 2017 (GMT +0530)
Tiruchirappalli

Weather History for VOTR - January, 2013

Change the Weather History Date:

Wednesday, January 9, 2013

  Actual Average Record
Temperature  
Mean Temperature 80 °F -  
Max Temperature 86 °F 84 °F 90 °F (2017)
Min Temperature 74 °F 72 °F 66 °F (2017)
Cooling Degree Days 15    
Growing Degree Days 30 (Base 50)    
Moisture  
Dew Point 70 °F    
Average Humidity 75    
Maximum Humidity 96    
Minimum Humidity 50    
Precipitation  
Precipitation 0.00 in - - ()
Sea Level Pressure  
Sea Level Pressure 29.90 in    
Wind  
Wind Speed 9 mph ()    
Max Wind Speed 16 mph    
Max Gust Speed -    
Visibility 1.8 miles    
Events Rain    
Averages and records for this station are not official NWS values.
T = Trace of Precipitation, MM = Missing Value Source: Averaged Metar Reports

Daily Weather History Graph

Daily Weather History Graph

Search for Another Location

Airport or City:

Trip Planner

Search our weather history database for the weather conditions in past years. The results will help you decide how hot, cold, wet, or windy it might be!

Date:

Astronomy

Jan. 09, 2013 Rise Set
Actual Time 6:36 AM IST 6:08 PM IST
Civil Twilight 6:13 AM IST 6:31 PM IST
Nautical Twilight 5:47 AM IST 6:57 PM IST
Astronomical Twilight 5:21 AM IST 7:23 PM IST
Moon 3:46 AM IST (1/9) 3:41 PM IST (1/9)
Length of Visible Light 12h 17m
Length of Day
11h 32m
Waning Crescent, 9% of the Moon is Illuminated
Jan 9
Waning Crescent
Jan 12
New
Jan 19
First Quarter
Jan 27
Full
Feb 3
Last Quarter

Hourly Weather History & Observations

Time (IST) Temp. Heat Index Dew Point Humidity Pressure Visibility Wind Dir Wind Speed Gust Speed Precip Events Conditions
12:10 AM 77.0 °F - 73.4 °F 89% 29.95 in 1.6 mi NE 4.6 mph - N/A   Light Drizzle
12:40 AM 77.0 °F - 73.4 °F 89% 29.92 in 1.6 mi NE 12.7 mph - N/A   Light Drizzle
1:10 AM 75.2 °F - 73.4 °F 94% 29.92 in 1.6 mi ENE 15.0 mph - N/A   Haze
1:40 AM 75.2 °F - 73.4 °F 94% 29.89 in 1.6 mi NE 13.8 mph - N/A   Haze
2:10 AM 75.2 °F - 73.4 °F 94% 29.89 in 1.6 mi NE 13.8 mph - N/A   Haze
2:30 AM 75 °F - 74 °F 96% 29.89 in 1 mi NE 15.0 mph - -   Haze
2:40 AM 75.2 °F - 73.4 °F 94% 29.89 in 1.6 mi NE 6.9 mph - N/A   Haze
3:10 AM 75.2 °F - 73.4 °F 94% 29.86 in 1.6 mi ENE 13.8 mph - N/A   Haze
3:40 AM 75.2 °F - 73.4 °F 94% 29.86 in 1.6 mi ENE 13.8 mph - N/A   Haze
4:10 AM 75.2 °F - 73.4 °F 94% 29.86 in 1.6 mi NNE 6.9 mph - N/A   Haze
4:40 AM 75.2 °F - 73.4 °F 94% 29.86 in 1.6 mi NNE 8.1 mph - N/A   Light Drizzle
5:10 AM 75.2 °F - 73.4 °F 94% 29.86 in 1.6 mi NNE 8.1 mph - N/A   Light Drizzle
5:30 AM 74 °F - 70 °F 84% 29.87 in 1 mi NNE 10.4 mph - - Rain Light Drizzle
5:40 AM 75.2 °F - 69.8 °F 83% 29.86 in 1.6 mi NNE 8.1 mph - N/A   Light Drizzle
6:10 AM 75.2 °F - 69.8 °F 83% 29.89 in 1.6 mi NNE 8.1 mph - N/A   Light Drizzle
6:40 AM 75.2 °F - 69.8 °F 83% 29.89 in 1.2 mi NNE 9.2 mph - N/A   Mostly Cloudy
7:10 AM 75.2 °F - 69.8 °F 83% 29.92 in 1.2 mi NNE 8.1 mph - N/A   Mostly Cloudy
7:40 AM 77.0 °F - 71.6 °F 83% 29.92 in 1.2 mi NE 6.9 mph - N/A   Mostly Cloudy
8:10 AM 77.0 °F - 71.6 °F 83% 29.95 in 1.2 mi WSW 6.9 mph - N/A   Mostly Cloudy
8:30 AM 75 °F - 69 °F 75% 29.95 in 1 mi NNE 9.2 mph - -   Haze
8:40 AM 75.2 °F - 68.0 °F 78% 29.95 in 1.6 mi NNE 9.2 mph - N/A   Haze
9:10 AM 75.2 °F - 68.0 °F 78% 29.95 in 1.6 mi NNE 9.2 mph - N/A   Haze
9:40 AM 77.0 °F - 69.8 °F 78% 29.95 in 1.6 mi NNE 9.2 mph - N/A   Haze
10:10 AM 77.0 °F - 69.8 °F 78% 29.95 in 1.6 mi NNE 11.5 mph - N/A   Haze
10:40 AM 77.0 °F - 69.8 °F 78% 29.95 in 1.6 mi NNE 16.1 mph - N/A   Haze
11:10 AM 77.0 °F - 69.8 °F 78% 29.95 in 1.6 mi NNE 16.1 mph - N/A   Haze
11:30 AM 81 °F - 70 °F 61% 29.95 in 1 mi NNE 11.5 mph - -   Haze
12:10 PM 80.6 °F 83.9 °F 69.8 °F 70% 29.95 in 1.9 mi NE 11.5 mph - N/A   Haze
12:40 PM 82.4 °F 86.3 °F 69.8 °F 66% 29.95 in 1.9 mi NNE 11.5 mph - N/A   Haze
1:10 PM 82.4 °F 86.3 °F 69.8 °F 66% 29.92 in 1.9 mi NE 9.2 mph - N/A   Haze
1:40 PM 84.2 °F 88.4 °F 69.8 °F 62% 29.89 in 2.5 mi NNE 9.2 mph - N/A   Haze
2:10 PM 84.2 °F 88.4 °F 69.8 °F 62% 29.86 in 2.2 mi NNE 9.2 mph - N/A   Haze
2:30 PM 85 °F - 69 °F 50% 29.86 in 1 mi NNE 9.2 mph - -   Haze
2:40 PM 84.2 °F 88.4 °F 69.8 °F 62% 29.86 in 2.2 mi ENE 5.8 mph - N/A   Haze
3:10 PM 84.2 °F 88.4 °F 69.8 °F 62% 29.86 in 2.2 mi ENE 6.9 mph - N/A   Haze
3:40 PM 84.2 °F 88.4 °F 69.8 °F 62% 29.86 in 2.5 mi East 9.2 mph - N/A   Haze
4:10 PM 84.2 °F 88.4 °F 69.8 °F 62% 29.83 in 2.5 mi East 9.2 mph - N/A   Haze
4:40 PM 84.2 °F 88.4 °F 69.8 °F 62% 29.83 in 2.5 mi East 10.4 mph - N/A   Haze
5:10 PM 82.4 °F 86.3 °F 69.8 °F 66% 29.83 in 2.5 mi ENE 6.9 mph - N/A   Haze
5:30 PM 82 °F - 69 °F 56% 29.84 in 2 mi NE 9.2 mph - -   Haze
5:40 PM 82.4 °F 86.3 °F 69.8 °F 66% 29.86 in 2.5 mi ENE 6.9 mph - N/A   Haze
6:10 PM 82.4 °F 85.4 °F 68.0 °F 62% 29.86 in 2.5 mi ENE 6.9 mph - N/A   Haze
6:40 PM 80.6 °F 83.2 °F 68.0 °F 65% 29.89 in 2.5 mi ENE 5.8 mph - N/A   Haze
7:10 PM 80.6 °F 83.2 °F 68.0 °F 65% 29.89 in 2.5 mi ENE 4.6 mph - N/A   Haze
7:40 PM 78.8 °F - 66.2 °F 65% 29.92 in 2.5 mi East 3.5 mph - N/A   Haze
8:10 PM 78.8 °F - 66.2 °F 65% 29.92 in 2.5 mi ESE 4.6 mph - N/A   Haze
8:30 PM 78 °F - 64 °F 53% 29.93 in 1 mi East 3.5 mph - -   Haze
8:40 PM 77.0 °F - 64.4 °F 65% 29.92 in 2.5 mi East 3.5 mph - N/A   Haze
9:10 PM 77.0 °F - 64.4 °F 65% 29.92 in 2.5 mi ENE 2.3 mph - N/A   Haze
9:40 PM 77.0 °F - 64.4 °F 65% 29.95 in 2.5 mi ENE 3.5 mph - N/A   Haze
10:10 PM 77.0 °F - 64.4 °F 65% 29.95 in 2.5 mi East 5.8 mph - N/A   Haze
11:10 PM 75.2 °F - 64.4 °F 69% 29.92 in 1.9 mi NE 8.1 mph - N/A   Haze
11:30 PM 75 °F - 66 °F 68% 29.93 in 1 mi NE 9.2 mph - -   Haze
11:40 PM 75.2 °F - 68.0 °F 78% 29.92 in 1.9 mi NE 8.1 mph - N/A   Haze